Regional Weather Roundup
Issued by NWS

Home | Current Version | Previous Version | Graphics & Text | Print | Product List | Glossary On
Versions: 1 2 3 4 5 6 7 8 9 10 11 12 13 14 15 16 17 18 19 20 21 22 23 24 25 26 27 28 29 30 31 32 33 34 35 36 37 38 39 40 41 42 43 44 45 46 47 48 49 50
000
ASUS44 KMEG 261110
RWRTN
TENNESSEE HOURLY STATE WEATHER ROUNDUP
NATIONAL WEATHER SERVICE MEMPHIS TN
600 AM CDT TUE SEP 26 2017

TNZ002-004-019-021-049-052-054-088>092-261200-
WEST TENNESSEE

CITY           SKY/WX    TMP DP  RH WIND       PRES   REMARKS
MEMPHIS INTL   CLEAR     70  66  87 CALM      29.96R
NWS MEMPHIS      N/A     67 N/A N/A MISG        N/A
JACKSON        CLEAR     64  64 100 CALM      29.98R FOG
DYERSBURG      CLEAR     66  66 100 CALM      29.97S
SOMERVILLE     CLEAR     66  64  94 CALM      29.96R
COVINGTON      CLEAR     64  63  94 CALM      29.97R FOG
BOLIVAR        CLEAR     64  63  94 CALM      29.97R FOG
PARIS          CLOUDY    64  64 100 CALM      29.97R
HUNTINGDON     CLOUDY    66  66 100 CALM      29.97R
LEXINGTON      FOG       64  64 100 CALM      29.98R VSB 0
SELMER         CLEAR     66  64  94 CALM      29.98R
SAVANNAH       CLOUDY    63  63 100 CALM      29.98R
$$

TNZ008-025-027-028-033-062-065-066-261200-
NORTH MIDDLE TENNESSEE

CITY           SKY/WX    TMP DP  RH WIND       PRES   REMARKS
NASHVILLE      MOCLDY    67  65  93 CALM      29.99R
PORTLAND       CLEAR     63  63 100 CALM      29.99R
CLARKSVILLE    PTCLDY    63  62  97 CALM      29.99R FOG
SMYRNA           N/A    N/A N/A N/A MISG        N/A
COOKEVILLE     CLEAR     57  55  94 CALM      30.01R FOG
GALLATIN       CLEAR     63  61  94 CALM      30.01R
CROSSVILLE     FOG       59  58  96 CALM      30.06R VSB 3/4
$$

TNZ061-075-076-078-094-096-097-261200-
SOUTH MIDDLE TENNESSEE

CITY           SKY/WX    TMP DP  RH WIND       PRES   REMARKS
FAYETTEVILLE   CLEAR     66  64  94 CALM      30.00R
TULLAHOMA      CLEAR     61  57  88 CALM      30.02R
WINCHESTER     CLEAR     61  61 100 CALM      30.01R
MCMINNVILLE    CLEAR     61  61 100 CALM      30.01R
COLUMBIA       MOCLDY    64 N/A N/A CALM      29.97R
SHELBYVILLE    CLEAR     64  64 100 CALM      29.99S
$$

TNZ017-018-042-046-047-261200-
NORTHEAST TENNESSEE

CITY           SKY/WX    TMP DP  RH WIND       PRES   REMARKS
TRI CITIES     PTCLDY    57  57 100 CALM      30.05R FOG
ELIZABETHTON   MOCLDY    59  57  94 CALM      30.05S
$$

TNZ012-013-036-069-073-074-261200-
CENTRAL EAST TENNESSEE

CITY           SKY/WX    TMP DP  RH WIND       PRES   REMARKS
KNOXVILLE      PTCLDY    62  60  93 CALM      30.01R
OAK RIDGE      CLEAR     62  60  93 CALM      30.03S
DOWNTOWN KNOXV FOG       61  61 100 CALM      30.01S VSB 3/4
GATLINBURG     CLEAR     55  55 100 CALM      30.02R
MORRISTOWN     CLEAR     61  59  94 CALM      30.02S
JACKSBORO      MOCLDY    59  59 100 CALM      30.06R FOG
$$

TNZ083-085-099-261200-
SOUTHEAST TENNESSEE

CITY           SKY/WX    TMP DP  RH WIND       PRES   REMARKS
CHATTANOOGA    CLEAR     64  62  93 CALM      30.00S
DAYTON         FOG       61  61 100 N3        30.00R VSB 1/2
$$

SKY/WX REPORTED AS FAIR MEANS FEW OR NO CLOUDS BELOW
12 THOUSAND FEET.




USA.gov is the U.S. government's official web portal to all federal, state and local government web resources and services.